Theta_e
313 311 309 308 310 307 306 306 306 306 305 306 307 308 306 303 306 308 309 309 308 308
309 307 307 307 305 305 304 307 306 305 303 304 306 307 307 308 308 309 306 306 306 305
307 307 306 305 304 303 303 303 303 303 303 307 306 306 308 308 308 307 307 305 304 307
305 305 304 302 302 302 301 302 302 303 303 303 303 302 301 303 306 306 306 307 306 307
303 302 301 301 301 302 301 302 302 303 303 303 302 301 303 306 307 308 307 307 306 306
301 301 300 301 301 302 302 302 302 302 302 302 302 301 304 306 307 308 308 309 308 308
301 301 301 302 302 302 302 302 302 302 301 303 304 305 305 306 307 308 309 309 310 310
302 302 302 302 303 303 302 302 302 304 304 304 306 306 305 305 307 307 307 309 310 310
303 303 302 303 302 302 302 301 301 302 303 303 307 303 306 306 307 307 306 307 309 310
304 304 302 303 302 301 300 300 301 301 303 306 306 302 302 305 307 306 305 305 306 307
304 303 303 302 301 301 300 300 300 301 302 304 306 301 301 303 306 305 304 304 305 304
303 302 301 301 300 301 301 300 301 301 302 304 304 300 301 303 305 304 303 303 304 303
303 302 301 300 301 300 300 300 302 303 303 306 304 299 301 301 300 302 303 302 302 301
302 302 301 301 300 300 301 301 301 301 306 308 304 302 299 300 301 300 301 300 300 299
Wind_Speed
8 5 4 5 4 4 3 4 5 5 6 6 6 5 5 4 4 5 5 6 5 4
6 7 5 6 4 4 5 5 6 6 6 6 6 5 5 4 5 4 4 5 5 4
6 6 6 5 6 6 5 5 5 6 5 6 6 6 5 4 4 4 4 4 5 4
5 5 4 5 5 5 5 5 5 5 5 5 5 6 5 4 4 5 5 5 4 4
3 4 5 5 6 5 5 5 5 5 5 5 5 6 6 5 5 6 6 6 4 5
5 5 6 6 5 5 6 6 6 5 5 6 5 6 6 6 7 8 8 6 5 6
6 6 6 6 6 6 6 6 6 6 6 6 6 6 8 8 7 7 7 7 7 3
5 6 6 6 6 6 6 6 6 6 7 7 7 7 8 8 7 8 8 9 8 5
5 6 6 6 6 6 6 6 6 7 7 8 6 13 12 9 7 9 9 9 9 10
5 6 6 6 6 6 6 6 7 7 8 7 8 13 11 13 7 9 9 10 8 9
6 6 6 6 6 6 4 6 5 7 7 7 7 11 11 11 9 9 10 10 9 9
5 6 6 6 7 5 4 4 6 5 8 9 7 11 11 8 7 9 10 10 10 9
5 6 6 5 6 4 3 4 4 6 6 10 7 11 11 8 4 7 7 8 9 14
5 5 5 4 4 5 5 5 5 6 6 8 10 9 12 11 6 6 6 6 6 6
Wind_Direction
41 45 39 30 15 3 2 341 343 349 342 329 333 328 318 303 278 262 251 254 251 256
38 38 24 16 12 358 347 334 347 340 327 321 322 315 303 288 291 284 288 270 262 249
33 23 15 8 360 348 332 332 328 319 316 332 322 315 301 298 301 305 285 259 258 249
24 15 10 8 353 343 321 327 326 328 333 318 327 335 326 327 307 312 303 298 289 263
26 5 7 358 349 332 341 340 339 340 326 339 348 332 311 316 307 294 290 285 276 273
10 10 6 354 337 343 356 350 352 2 355 344 334 322 314 304 303 310 310 310 274 259
354 351 347 341 352 358 351 351 348 358 340 339 321 325 327 334 330 335 349 338 347 283
342 345 350 355 357 1 6 357 353 346 341 345 358 358 353 14 5 5 6 12 27 46
5 354 360 355 1 12 4 359 354 359 352 357 15 360 20 20 16 21 20 30 51 57
357 353 346 349 10 7 3 1 2 359 6 6 23 4 21 23 31 35 30 34 48 59
358 355 345 357 6 2 2 10 357 3 4 5 23 7 24 23 37 43 40 36 40 61
354 351 349 1 355 355 5 16 8 2 14 20 22 10 29 25 39 46 47 43 41 57
2 4 357 359 1 340 358 16 13 3 12 20 17 19 42 42 35 51 49 46 49 53
3 356 352 14 15 2 19 36 33 16 15 21 30 27 36 40 42 49 57 50 48 53